Simultaneous Nadir Overpasses (SNOs) Predictions

Prediction of SNOs between AURA and NPP Satellite Orbit:

Table of predicted SNOs for the next 14.0 days since TLE Epoch: 7/14/2017
Index Date (AURA) Time (AURA) Lat,Lon (AURA) SZA (AURA ) Date (NPP) Time (NPP) Lat,Lon (NPP) SZA (NPP ) Distance(km) Time Diff (sec)
1 07/17/2017 02:53:44 73.99, 12.57 78.66 07/17/2017 02:52:31 74.24, 10.98 78.89 55.80 73
2 07/17/2017 03:41:16 -79.37,-159.49 107.94 07/17/2017 03:41:17 -79.37,-159.48 107.94 0.27 1
3 07/19/2017 19:08:22 79.16, 147.41 72.84 07/19/2017 19:07:32 79.16, 147.36 72.89 1.07 50
4 07/19/2017 19:57:42 -79.45, -43.06 107.58 07/19/2017 19:58:09 -79.46, -43.03 107.61 0.65 27
5 07/22/2017 11:24:47 79.28, -95.97 73.19 07/22/2017 11:24:23 79.27, -95.99 73.21 0.39 24
6 07/22/2017 12:14:07 -79.56, 73.61 107.24 07/22/2017 12:15:00 -79.57, 73.69 107.29 1.49 53
7 07/25/2017 02:52:49 -76.63,-160.10 102.83 07/25/2017 02:51:35 -76.79,-160.94 102.70 28.34 74
8 07/25/2017 03:41:11 79.39, 20.64 73.58 07/25/2017 03:41:13 79.39, 20.68 73.57 0.83 2
9 07/27/2017 19:08:19 -79.16, -32.55 105.52 07/27/2017 19:07:30 -79.16, -32.58 105.48 0.65 49




NCC Satellite Simultaneous Nadir Overpasses (SNOs) Prediction Service
